Simultaneous Nadir Overpasses (SNOs) Predictions

Prediction of SNOs between TERRA and METOP-C Satellite Orbit:

Table of predicted SNOs for the next 14.0 days since TLE Epoch: 4/21/2023
Index Date (TERRA) Time (TERRA) Lat,Lon (TERRA) SZA (TERRA ) Date (METOP-C) Time (METOP-C) Lat,Lon (METOP-C) SZA (METOP-C ) Distance(km) Time Diff (sec)
1 04/22/2023 00:59:32 80.84,-161.59 70.34 04/22/2023 00:59:00 80.84,-161.69 70.31 1.86 32
2 04/22/2023 01:48:52 -80.90, 6.87 109.55 04/22/2023 01:49:37 -80.90, 6.76 109.55 2.06 45
3 04/24/2023 16:21:11 -80.82, 147.77 110.57 04/24/2023 16:19:58 -80.81, 147.64 110.61 2.36 73
4 04/24/2023 17:10:32 80.86, -44.12 69.50 04/24/2023 17:10:37 80.86, -44.16 69.50 0.75 5
5 04/27/2023 08:32:11 -80.85, -94.68 111.37 04/27/2023 08:31:35 -80.85, -94.56 111.37 2.06 36
6 04/27/2023 09:21:32 80.89, 73.43 68.70 04/27/2023 09:22:15 80.88, 73.29 68.70 2.51 43
7 04/29/2023 23:54:14 80.04,-152.98 66.44 04/29/2023 23:53:01 80.21,-153.92 66.50 25.94 73
8 04/30/2023 00:43:11 -80.85, 22.62 112.19 04/30/2023 00:43:14 -80.85, 22.44 112.21 3.22 3
9 05/02/2023 16:04:49 80.83, -28.12 66.98 05/02/2023 16:04:13 80.84, -28.00 66.98 2.20 36
10 05/02/2023 16:54:09 -80.90, 140.34 112.91 05/02/2023 16:54:50 -80.90, 140.43 112.88 1.59 41
11 05/05/2023 07:26:52 -79.93, -87.04 115.29 05/05/2023 07:25:38 -80.14, -87.84 115.19 27.75 74



Historial Predications of SNOs between TERRA and METOP-C
